Location: Berlin
(52.5170°N, 13.4000°E)
Time: 06:16:44
(UTC+02:00)

ISS - Pass Details

Date: 22 July 2018
Orbit: 402 x 408 km, 51.6° (Epoch: 21 July)

Event Time Altitude Azimuth Distance (km) Brightness Sun altitude
Rises 23:37:37 0° 257° (WSW) 2,321 0.1 -14.4°
Reaches altitude 10° 23:39:41 10° 255° (WSW) 1,463 -0.9 -14.6°
Maximum altitude 23:42:57 71° 171° (S) 435 -4.0 -14.8°
Drops below altitude 10° 23:46:14 10° 87° (E) 1,469 -1.2 -14.9°
Sets 23:48:20 0° 85° (E) 2,331 -0.1 -15.0°
Enters shadow 23:48:21 - 85° (E) 2,339 -0.1 -15.0°
